This is the latest recevied weather packets stored in our database for station/object KD0JCP-10. If no packets are shown the sender has not sent any weather packets the latest 10 day(s).
| Time | Temp. | Humidity | Pressure | Rain* | Wind** | Luminosity | Snow |
|---|---|---|---|---|---|---|---|
| 1777995973 | 10.56° C | 42% | 1014.9 hPa | 0 mm | - | - | - |
| 1777995673 | 10.56° C | 42% | 1014.8 hPa | 0 mm | - | - | - |
| 1777995373 | 10.56° C | 43% | 1014.8 hPa | 0 mm | - | - | - |
| 1777995073 | 10.56° C | 43% | 1014.7 hPa | 0 mm | - | - | - |
| 1777994773 | 10.56° C | 43% | 1014.6 hPa | 0 mm | - | - | - |
| 1777994473 | 10.56° C | 44% | 1014.5 hPa | 0 mm | - | - | - |
| 1777994173 | 10.56° C | 44% | 1014.4 hPa | 0 mm | - | - | - |
| 1777993873 | 10° C | 45% | 1014.3 hPa | 0 mm | - | - | - |
| 1777993573 | 10° C | 45% | 1014.3 hPa | 0 mm | - | - | - |
| 1777993273 | 10° C | 44% | 1014.1 hPa | 0 mm | - | - | - |
| 1777992973 | 10° C | 44% | 1014.1 hPa | 0 mm | - | - | - |
| 1777992673 | 10° C | 48% | 1014 hPa | 0 mm | - | - | - |
| 1777992373 | 10° C | 48% | 1014 hPa | 0 mm | - | - | - |
| 1777992073 | 10° C | 49% | 1014.1 hPa | 0 mm | - | - | - |
| 1777991773 | 9.44° C | 52% | 1014.1 hPa | 0 mm | - | - | - |
| 1777991473 | 9.44° C | 53% | 1014.1 hPa | 0 mm | - | - | - |
| 1777991173 | 9.44° C | 52% | 1014 hPa | 0 mm | - | - | - |
| 1777990873 | 9.44° C | 53% | 1014 hPa | 0 mm | - | - | - |
| 1777990573 | 9.44° C | 55% | 1013.8 hPa | 0 mm | - | - | - |
| 1777989973 | 8.89° C | 57% | 1013.6 hPa | 0 mm | - | - | - |
| 1777989673 | 8.89° C | 57% | 1013.5 hPa | 0 mm | - | - | - |
| 1777989373 | 8.89° C | 59% | 1013.5 hPa | 0 mm | - | - | - |
| 1777989073 | 8.89° C | 60% | 1013.3 hPa | 0 mm | - | - | - |
| 1777988773 | 8.89° C | 62% | 1013.3 hPa | 0 mm | - | - | - |
| 1777988473 | 8.89° C | 62% | 1013.1 hPa | 0 mm | - | - | - |
* Rain latest hour (hover to see other rain measurements)
** Current wind speed in m/s (hover to see current wind gust speed)